Location: Ethel Rock
(53.4667°N, 4.5667°W)
Time: 05:06:35
(UTC+00:00)

USA 234 - Pass Details

Date: 24 October 2020
Orbit: 1100 x 1108 km, 123.0° (Epoch: 13 November)

Event Time Altitude Azimuth Distance (km) Brightness Sun altitude
Rises 05:42:50 0° 90° (E) 3,918 8.3 -12.5°
Reaches altitude 10° 05:45:19 10° 89° (E) 2,961 7.1 -12.1°
Maximum altitude 05:51:48 69° 8° (N) 1,178 3.4 -11.1°
Enters shadow 05:57:55 12° 287° (WNW) 2,821 4.8 -10.2°
